OEKAP EDDS-LOWW

Flight info

Callsign OEKAP
Flight time 2h 7m
Altitude 20000
Route EDDS STG2B STG DCT ETAGO N869 GUPIN L173 RIXED Y161 RIDAR Z79 DETEX Q104 AKIMA DCT OEL DCT PEROL DCT LUGEM DCT LOWW
Aircraft PA28/L-SDG/C

Departure

Time 2026-04-25 19:21
Airport Stuttgart Airport (EDDS)

Arrival

Time 2026-04-25 21:28
Airport Vienna International Airport (LOWW)
Time Latitude Longitude Altitude Speed Heading
2026-04-25 18:51 48.69177 9.21232 1261 ft 0 kts 199°
2026-04-25 19:14 48.69172 9.21228 1255 ft 4 kts 206°
2026-04-25 19:14 48.69157 9.21229 1261 ft 4 kts 135°
2026-04-25 19:15 48.69158 9.21256 1259 ft 5 kts 77°
2026-04-25 19:15 48.69152 9.21296 1252 ft 0 kts 115°
2026-04-25 19:15 48.69151 9.21301 1252 ft 1 kts 91°
2026-04-25 19:15 48.69159 9.21343 1250 ft 7 kts 68°
2026-04-25 19:16 48.69178 9.21443 1254 ft 12 kts 86°
2026-04-25 19:16 48.69165 9.21478 1247 ft 5 kts 166°
2026-04-25 19:16 48.69131 9.21486 1246 ft 3 kts 157°
2026-04-25 19:16 48.69121 9.21526 1245 ft 7 kts 81°
2026-04-25 19:17 48.69139 9.21618 1246 ft 12 kts 74°
2026-04-25 19:17 48.69168 9.21770 1242 ft 18 kts 75°
2026-04-25 19:17 48.69209 9.21983 1231 ft 23 kts 78°
2026-04-25 19:17 48.69256 9.22237 1224 ft 22 kts 75°
2026-04-25 19:18 48.69279 9.22359 1224 ft 8 kts 73°
2026-04-25 19:18 48.69288 9.22405 1223 ft 1 kts 72°
2026-04-25 19:18 48.69290 9.22415 1223 ft 1 kts 75°
2026-04-25 19:18 48.69290 9.22425 1223 ft 3 kts 102°
2026-04-25 19:19 48.69270 9.22470 1221 ft 8 kts 144°
2026-04-25 19:19 48.69222 9.22495 1220 ft 8 kts 163°
2026-04-25 19:19 48.69160 9.22525 1220 ft 10 kts 163°
2026-04-25 19:19 48.69115 9.22545 1221 ft 10 kts 164°
2026-04-25 19:20 48.69044 9.22501 1222 ft 8 kts 250°
2026-04-25 19:20 48.69040 9.22486 1222 ft 0 kts 247°
2026-04-25 19:20 48.69022 9.22394 1225 ft 34 kts 255°
2026-04-25 19:20 48.68901 9.21771 1266 ft 83 kts 252°
2026-04-25 19:21 48.68707 9.20857 1452 ft 95 kts 254°
2026-04-25 19:21 48.68317 9.18816 2045 ft 108 kts 257°
2026-04-25 19:21 48.68147 9.17679 2335 ft 114 kts 259°
2026-04-25 19:22 48.67933 9.16529 2629 ft 113 kts 258°
2026-04-25 19:22 48.67713 9.15417 2913 ft 111 kts 256°
2026-04-25 19:22 48.67279 9.13263 3577 ft 109 kts 258°
2026-04-25 19:23 48.67066 9.12165 3965 ft 104 kts 258°
2026-04-25 19:23 48.66262 9.10353 4499 ft 126 kts 201°
2026-04-25 19:23 48.65349 9.10425 4704 ft 140 kts 161°
2026-04-25 19:24 48.64426 9.10987 5007 ft 141 kts 159°
2026-04-25 19:24 48.63528 9.11479 5398 ft 137 kts 161°
2026-04-25 19:24 48.61793 9.12401 6168 ft 127 kts 154°
2026-04-25 19:25 48.61160 9.14737 6592 ft 123 kts 76°
2026-04-25 19:25 48.61297 9.16031 6799 ft 124 kts 79°
2026-04-25 19:25 48.61415 9.17301 7043 ft 121 kts 79°
2026-04-25 19:26 48.61498 9.18554 7257 ft 120 kts 81°
2026-04-25 19:26 48.61514 9.19841 7432 ft 123 kts 90°
2026-04-25 19:26 48.61490 9.21122 7653 ft 122 kts 87°
2026-04-25 19:26 48.61476 9.22406 7875 ft 123 kts 88°
2026-04-25 19:27 48.61462 9.23692 8128 ft 125 kts 87°
2026-04-25 19:27 48.61456 9.24138 8205 ft 126 kts 88°
2026-04-25 19:27 48.61432 9.26345 8576 ft 127 kts 86°
2026-04-25 19:27 48.61419 9.27679 8817 ft 127 kts 86°
2026-04-25 19:28 48.61405 9.29005 9046 ft 127 kts 86°
2026-04-25 19:28 48.61391 9.30337 9279 ft 126 kts 86°
2026-04-25 19:28 48.61379 9.31664 9512 ft 127 kts 86°
2026-04-25 19:28 48.61364 9.32997 9744 ft 126 kts 86°
2026-04-25 19:29 48.61351 9.34320 9976 ft 125 kts 86°
2026-04-25 19:29 48.61338 9.35625 10189 ft 124 kts 85°
2026-04-25 19:29 48.61324 9.36923 10397 ft 122 kts 85°
2026-04-25 19:29 48.61312 9.38197 10591 ft 120 kts 85°
2026-04-25 19:30 48.61300 9.39452 10800 ft 118 kts 85°
2026-04-25 19:30 48.61288 9.40684 11005 ft 116 kts 84°
2026-04-25 19:30 48.61276 9.41885 11212 ft 112 kts 83°
2026-04-25 19:30 48.61267 9.43050 11381 ft 112 kts 83°
2026-04-25 19:31 48.61253 9.44240 11559 ft 114 kts 84°
2026-04-25 19:31 48.61234 9.45446 11726 ft 117 kts 86°
2026-04-25 19:31 48.61214 9.46694 11895 ft 121 kts 86°
2026-04-25 19:31 48.61193 9.47964 12068 ft 124 kts 86°
2026-04-25 19:32 48.61176 9.49279 12275 ft 125 kts 86°
2026-04-25 19:32 48.61160 9.50587 12482 ft 125 kts 86°
2026-04-25 19:32 48.61142 9.51915 12684 ft 126 kts 86°
2026-04-25 19:32 48.61136 9.52364 12759 ft 126 kts 86°
2026-04-25 19:33 48.61108 9.54585 13100 ft 128 kts 86°
2026-04-25 19:33 48.61091 9.55951 13278 ft 131 kts 87°
2026-04-25 19:33 48.61072 9.57341 13464 ft 133 kts 87°
2026-04-25 19:33 48.61051 9.58753 13671 ft 136 kts 87°
2026-04-25 19:34 48.61033 9.60208 13864 ft 141 kts 87°
2026-04-25 19:34 48.61008 9.61698 14044 ft 142 kts 88°
2026-04-25 19:34 48.60986 9.63191 14213 ft 142 kts 87°
2026-04-25 19:34 48.60967 9.64673 14380 ft 141 kts 87°
2026-04-25 19:35 48.60948 9.66144 14544 ft 139 kts 87°
2026-04-25 19:35 48.60929 9.67601 14710 ft 138 kts 87°
2026-04-25 19:35 48.60911 9.69032 14871 ft 137 kts 87°
2026-04-25 19:35 48.60891 9.70459 15034 ft 134 kts 86°
2026-04-25 19:36 48.60872 9.71850 15195 ft 130 kts 86°
2026-04-25 19:36 48.60804 9.73185 15345 ft 125 kts 97°
2026-04-25 19:36 48.60640 9.74456 15481 ft 124 kts 94°
2026-04-25 19:36 48.60491 9.75749 15617 ft 124 kts 96°
2026-04-25 19:37 48.60340 9.77029 15750 ft 125 kts 94°
2026-04-25 19:37 48.60186 9.78340 15863 ft 127 kts 95°
2026-04-25 19:37 48.60030 9.79681 15954 ft 131 kts 95°
2026-04-25 19:37 48.59871 9.81045 16076 ft 133 kts 95°
2026-04-25 19:38 48.59709 9.82433 16198 ft 134 kts 95°
2026-04-25 19:38 48.59551 9.83813 16327 ft 134 kts 95°
2026-04-25 19:38 48.59391 9.85187 16449 ft 135 kts 95°
2026-04-25 19:38 48.59229 9.86595 16541 ft 137 kts 95°
2026-04-25 19:39 48.59064 9.88011 16645 ft 136 kts 94°
2026-04-25 19:39 48.58918 9.89428 16785 ft 138 kts 93°
2026-04-25 19:39 48.58750 9.90868 16947 ft 140 kts 94°
2026-04-25 19:39 48.58580 9.92325 17110 ft 141 kts 94°
2026-04-25 19:40 48.58409 9.93792 17276 ft 143 kts 94°
2026-04-25 19:40 48.58234 9.95276 17437 ft 144 kts 95°
2026-04-25 19:40 48.58061 9.96771 17603 ft 145 kts 94°
2026-04-25 19:40 48.57945 9.97764 17708 ft 145 kts 94°
2026-04-25 19:41 48.57769 9.99266 17877 ft 146 kts 94°
2026-04-25 19:41 48.57537 10.01263 18085 ft 145 kts 94°
2026-04-25 19:41 48.57363 10.02760 18243 ft 144 kts 94°
2026-04-25 19:41 48.57305 10.03261 18296 ft 144 kts 94°
2026-04-25 19:42 48.57018 10.05722 18540 ft 142 kts 94°
2026-04-25 19:42 48.56902 10.06710 18631 ft 141 kts 93°
2026-04-25 19:42 48.56735 10.08142 18763 ft 139 kts 93°
2026-04-25 19:42 48.56566 10.09590 18905 ft 137 kts 93°
2026-04-25 19:43 48.56404 10.10978 19036 ft 134 kts 92°
2026-04-25 19:43 48.56244 10.12353 19164 ft 132 kts 92°
2026-04-25 19:43 48.56088 10.13710 19299 ft 131 kts 92°
2026-04-25 19:43 48.55930 10.15052 19425 ft 129 kts 91°
2026-04-25 19:44 48.55775 10.16370 19563 ft 126 kts 91°
2026-04-25 19:44 48.55624 10.17657 19693 ft 123 kts 90°
2026-04-25 19:44 48.55480 10.18900 19818 ft 118 kts 89°
2026-04-25 19:44 48.55341 10.20088 19918 ft 113 kts 88°
2026-04-25 19:45 48.55205 10.21270 19969 ft 115 kts 89°
2026-04-25 19:45 48.55064 10.22447 20040 ft 114 kts 88°
2026-04-25 19:45 48.54924 10.23627 20089 ft 114 kts 89°
2026-04-25 19:45 48.54787 10.24802 20136 ft 116 kts 88°
2026-04-25 19:46 48.54635 10.26036 20149 ft 123 kts 90°
2026-04-25 19:46 48.54477 10.27345 20175 ft 131 kts 91°
2026-04-25 19:46 48.54306 10.28749 20214 ft 140 kts 92°
2026-04-25 19:46 48.54122 10.30265 20194 ft 154 kts 94°
2026-04-25 19:47 48.53918 10.31911 20181 ft 164 kts 94°
2026-04-25 19:47 48.53706 10.33650 20158 ft 173 kts 95°
2026-04-25 19:47 48.53485 10.35473 20157 ft 178 kts 95°
2026-04-25 19:47 48.53262 10.37330 20162 ft 181 kts 95°
2026-04-25 19:48 48.53035 10.39200 20167 ft 180 kts 95°
2026-04-25 19:48 48.52816 10.41031 20166 ft 179 kts 95°
2026-04-25 19:48 48.52594 10.42882 20166 ft 178 kts 95°
2026-04-25 19:48 48.52375 10.44722 20169 ft 178 kts 95°
2026-04-25 19:49 48.52156 10.46552 20167 ft 177 kts 95°
2026-04-25 19:49 48.52010 10.47759 20166 ft 177 kts 95°
2026-04-25 19:49 48.51714 10.50208 20167 ft 178 kts 95°
2026-04-25 19:49 48.51490 10.52059 20160 ft 179 kts 95°
2026-04-25 19:50 48.51038 10.55784 20163 ft 181 kts 95°
2026-04-25 19:50 48.50810 10.57654 20163 ft 181 kts 95°
2026-04-25 19:50 48.50582 10.59528 20164 ft 182 kts 95°
2026-04-25 19:51 48.50355 10.61381 20155 ft 182 kts 95°
2026-04-25 19:51 48.50126 10.63259 20160 ft 182 kts 95°
2026-04-25 19:51 48.49896 10.65139 20152 ft 182 kts 95°
2026-04-25 19:51 48.49666 10.67022 20151 ft 183 kts 95°
2026-04-25 19:52 48.49434 10.68905 20154 ft 183 kts 95°
2026-04-25 19:52 48.49203 10.70788 20153 ft 183 kts 95°
2026-04-25 19:52 48.48970 10.72670 20152 ft 183 kts 95°
2026-04-25 19:52 48.48738 10.74553 20151 ft 182 kts 95°
2026-04-25 19:53 48.48506 10.76433 20149 ft 183 kts 95°
2026-04-25 19:53 48.48273 10.78319 20148 ft 183 kts 95°
2026-04-25 19:53 48.48040 10.80205 20143 ft 183 kts 95°
2026-04-25 19:53 48.47806 10.82086 20143 ft 183 kts 95°
2026-04-25 19:54 48.47572 10.83970 20143 ft 183 kts 95°
2026-04-25 19:54 48.47338 10.85847 20154 ft 183 kts 96°
2026-04-25 19:54 48.47105 10.87728 20147 ft 183 kts 96°
2026-04-25 19:54 48.46949 10.88975 20153 ft 183 kts 96°
2026-04-25 19:55 48.46635 10.91491 20153 ft 183 kts 96°
2026-04-25 19:55 48.46399 10.93371 20148 ft 182 kts 96°
2026-04-25 19:55 48.46164 10.95252 20153 ft 182 kts 96°
2026-04-25 19:55 48.45929 10.97124 20153 ft 182 kts 96°
2026-04-25 19:56 48.45693 10.99001 20148 ft 182 kts 96°
2026-04-25 19:56 48.45458 11.00877 20155 ft 183 kts 96°
2026-04-25 19:56 48.45223 11.02740 20155 ft 183 kts 96°
2026-04-25 19:56 48.44986 11.04624 20151 ft 183 kts 96°
2026-04-25 19:57 48.44748 11.06499 20152 ft 182 kts 96°
2026-04-25 19:57 48.44511 11.08377 20150 ft 183 kts 96°
2026-04-25 19:57 48.44273 11.10256 20153 ft 183 kts 96°
2026-04-25 19:57 48.44034 11.12140 20153 ft 183 kts 96°
2026-04-25 19:58 48.43795 11.14020 20153 ft 183 kts 96°
2026-04-25 19:58 48.43556 11.15899 20153 ft 183 kts 96°
2026-04-25 19:58 48.43318 11.17775 20149 ft 183 kts 96°
2026-04-25 19:58 48.43078 11.19656 20154 ft 183 kts 96°
2026-04-25 19:59 48.42837 11.21552 20157 ft 184 kts 96°
2026-04-25 19:59 48.42596 11.23437 20154 ft 185 kts 96°
2026-04-25 19:59 48.42352 11.25325 20157 ft 183 kts 96°
2026-04-25 19:59 48.42112 11.27194 20162 ft 181 kts 96°
2026-04-25 20:00 48.41873 11.29053 20159 ft 181 kts 96°
2026-04-25 20:00 48.41716 11.30285 20156 ft 181 kts 96°
2026-04-25 20:00 48.41395 11.32763 20154 ft 180 kts 96°
2026-04-25 20:00 48.41156 11.34621 20152 ft 180 kts 96°
2026-04-25 20:01 48.40679 11.38312 20152 ft 180 kts 96°
2026-04-25 20:01 48.40440 11.40158 20151 ft 179 kts 96°
2026-04-25 20:01 48.40201 11.42003 20150 ft 179 kts 96°
2026-04-25 20:02 48.39973 11.43846 20143 ft 178 kts 92°
2026-04-25 20:02 48.40012 11.45657 20136 ft 174 kts 78°
2026-04-25 20:02 48.40111 11.47483 20136 ft 175 kts 81°
2026-04-25 20:02 48.40148 11.49319 20136 ft 176 kts 83°
2026-04-25 20:03 48.40172 11.51158 20135 ft 176 kts 82°
2026-04-25 20:03 48.40199 11.53001 20135 ft 176 kts 83°
2026-04-25 20:03 48.40223 11.54838 20135 ft 175 kts 83°
2026-04-25 20:03 48.40247 11.56668 20136 ft 175 kts 83°
2026-04-25 20:04 48.40273 11.58508 20135 ft 176 kts 83°
2026-04-25 20:04 48.40297 11.60344 20135 ft 175 kts 83°
2026-04-25 20:04 48.40322 11.62178 20135 ft 175 kts 83°
2026-04-25 20:04 48.40346 11.64013 20136 ft 176 kts 83°
2026-04-25 20:05 48.40369 11.65851 20135 ft 175 kts 83°
2026-04-25 20:05 48.40393 11.67689 20135 ft 175 kts 83°
2026-04-25 20:05 48.40416 11.69524 20135 ft 175 kts 83°
2026-04-25 20:05 48.40441 11.71367 20140 ft 176 kts 83°
2026-04-25 20:06 48.40462 11.73220 20138 ft 177 kts 83°
2026-04-25 20:06 48.40485 11.75071 20138 ft 177 kts 83°
2026-04-25 20:06 48.40506 11.76901 20138 ft 177 kts 83°
2026-04-25 20:06 48.40529 11.78755 20138 ft 177 kts 83°
2026-04-25 20:07 48.40551 11.80612 20140 ft 177 kts 83°
2026-04-25 20:07 48.40572 11.82470 20140 ft 177 kts 83°
2026-04-25 20:07 48.40593 11.84324 20140 ft 177 kts 83°
2026-04-25 20:07 48.40613 11.86168 20138 ft 176 kts 83°
2026-04-25 20:08 48.40635 11.88021 20139 ft 177 kts 83°
2026-04-25 20:08 48.40655 11.89881 20141 ft 178 kts 83°
2026-04-25 20:08 48.40675 11.91755 20142 ft 179 kts 83°
2026-04-25 20:08 48.40695 11.93622 20143 ft 179 kts 83°
2026-04-25 20:09 48.40714 11.95499 20144 ft 179 kts 83°
2026-04-25 20:09 48.40734 11.97377 20144 ft 180 kts 83°
2026-04-25 20:09 48.40753 11.99259 20146 ft 180 kts 83°
2026-04-25 20:09 48.40772 12.01141 20147 ft 180 kts 83°
2026-04-25 20:10 48.40791 12.03034 20147 ft 181 kts 83°
2026-04-25 20:10 48.40809 12.04901 20148 ft 181 kts 83°
2026-04-25 20:10 48.40826 12.06793 20148 ft 181 kts 84°
2026-04-25 20:10 48.40844 12.08680 20147 ft 180 kts 83°
2026-04-25 20:11 48.40861 12.10577 20147 ft 181 kts 84°
2026-04-25 20:11 48.40878 12.12469 20147 ft 181 kts 84°
2026-04-25 20:11 48.40895 12.14364 20153 ft 181 kts 84°
2026-04-25 20:11 48.40910 12.16263 20151 ft 182 kts 84°
2026-04-25 20:12 48.40927 12.18172 20150 ft 183 kts 84°
2026-04-25 20:12 48.40943 12.20085 20147 ft 183 kts 84°
2026-04-25 20:12 48.40958 12.22003 20148 ft 183 kts 84°
2026-04-25 20:12 48.40963 12.22646 20148 ft 183 kts 84°
2026-04-25 20:13 48.40988 12.25829 20146 ft 183 kts 84°
2026-04-25 20:13 48.41003 12.27746 20147 ft 183 kts 84°
2026-04-25 20:13 48.41020 12.29666 20147 ft 183 kts 84°
2026-04-25 20:13 48.41031 12.31582 20147 ft 183 kts 84°
2026-04-25 20:14 48.41044 12.33501 20144 ft 183 kts 84°
2026-04-25 20:14 48.41058 12.35422 20145 ft 184 kts 84°
2026-04-25 20:14 48.41072 12.37343 20147 ft 184 kts 84°
2026-04-25 20:14 48.41084 12.39267 20153 ft 184 kts 84°
2026-04-25 20:15 48.41097 12.41162 20157 ft 184 kts 84°
2026-04-25 20:15 48.41108 12.43088 20156 ft 184 kts 84°
2026-04-25 20:15 48.41120 12.45014 20153 ft 184 kts 84°
2026-04-25 20:15 48.41132 12.46937 20153 ft 184 kts 84°
2026-04-25 20:16 48.41143 12.48863 20152 ft 184 kts 84°
2026-04-25 20:16 48.41154 12.50784 20147 ft 184 kts 84°
2026-04-25 20:16 48.41164 12.52709 20146 ft 184 kts 84°
2026-04-25 20:16 48.41175 12.54637 20127 ft 185 kts 84°
2026-04-25 20:17 48.41186 12.56578 20094 ft 187 kts 84°
2026-04-25 20:17 48.41195 12.58535 20087 ft 186 kts 84°
2026-04-25 20:17 48.41204 12.60483 20089 ft 186 kts 84°
2026-04-25 20:17 48.41213 12.62426 20089 ft 185 kts 84°
2026-04-25 20:18 48.41222 12.64365 20086 ft 185 kts 84°
2026-04-25 20:18 48.41230 12.66307 20085 ft 185 kts 84°
2026-04-25 20:18 48.41238 12.68238 20079 ft 185 kts 84°
2026-04-25 20:18 48.41245 12.70149 20079 ft 185 kts 84°
2026-04-25 20:19 48.41252 12.72083 20076 ft 185 kts 84°
2026-04-25 20:19 48.41260 12.74015 20076 ft 184 kts 84°
2026-04-25 20:19 48.41266 12.75948 20076 ft 184 kts 84°
2026-04-25 20:19 48.41272 12.77877 20075 ft 184 kts 84°
2026-04-25 20:20 48.41278 12.79806 20077 ft 184 kts 84°
2026-04-25 20:20 48.41284 12.81733 20077 ft 184 kts 84°
2026-04-25 20:20 48.41289 12.83634 20078 ft 184 kts 84°
2026-04-25 20:20 48.41297 12.85588 20078 ft 185 kts 84°
2026-04-25 20:21 48.41298 12.87523 20077 ft 185 kts 84°
2026-04-25 20:21 48.41300 12.89462 20078 ft 185 kts 84°
2026-04-25 20:21 48.41306 12.91402 20078 ft 185 kts 84°
2026-04-25 20:21 48.41314 12.93340 20079 ft 186 kts 84°
2026-04-25 20:22 48.41316 12.95284 20080 ft 185 kts 84°
2026-04-25 20:22 48.41317 12.95914 20081 ft 185 kts 84°
2026-04-25 20:22 48.41321 12.99165 20082 ft 186 kts 84°
2026-04-25 20:22 48.41324 13.01111 20085 ft 186 kts 84°
2026-04-25 20:23 48.41325 13.03055 20080 ft 186 kts 84°
2026-04-25 20:23 48.41327 13.04976 20078 ft 186 kts 84°
2026-04-25 20:23 48.41328 13.06947 20078 ft 186 kts 84°
2026-04-25 20:23 48.41330 13.08872 20079 ft 186 kts 84°
2026-04-25 20:24 48.41330 13.10823 20084 ft 186 kts 84°
2026-04-25 20:24 48.41331 13.12773 20084 ft 187 kts 84°
2026-04-25 20:24 48.41331 13.14729 20083 ft 187 kts 84°
2026-04-25 20:24 48.41331 13.16681 20083 ft 187 kts 84°
2026-04-25 20:25 48.41330 13.18635 20081 ft 186 kts 84°
2026-04-25 20:25 48.41329 13.20586 20073 ft 186 kts 84°
2026-04-25 20:25 48.41328 13.22536 20072 ft 186 kts 84°
2026-04-25 20:25 48.41327 13.24487 20072 ft 186 kts 84°
2026-04-25 20:26 48.41325 13.26435 20076 ft 186 kts 84°
2026-04-25 20:26 48.41323 13.28378 20076 ft 186 kts 84°
2026-04-25 20:26 48.41320 13.30323 20076 ft 186 kts 84°
2026-04-25 20:26 48.41180 13.32270 20062 ft 190 kts 98°
2026-04-25 20:27 48.40982 13.33554 20058 ft 190 kts 99°
2026-04-25 20:27 48.40694 13.35489 20059 ft 189 kts 98°
2026-04-25 20:27 48.40421 13.37428 20054 ft 189 kts 97°
2026-04-25 20:27 48.40151 13.39365 20054 ft 189 kts 97°
2026-04-25 20:28 48.39790 13.41930 20057 ft 189 kts 97°
2026-04-25 20:28 48.39605 13.43244 20057 ft 189 kts 98°
2026-04-25 20:28 48.39283 13.45169 20052 ft 191 kts 105°
2026-04-25 20:28 48.38788 13.47034 20053 ft 192 kts 110°
2026-04-25 20:29 48.38291 13.48904 20054 ft 192 kts 108°
2026-04-25 20:29 48.37820 13.50787 20055 ft 192 kts 108°
2026-04-25 20:29 48.37350 13.52674 20059 ft 193 kts 108°
2026-04-25 20:29 48.36879 13.54559 20058 ft 192 kts 108°
2026-04-25 20:30 48.36407 13.56439 20058 ft 193 kts 108°
2026-04-25 20:30 48.35934 13.58325 20058 ft 193 kts 108°
2026-04-25 20:30 48.35461 13.60210 20059 ft 193 kts 108°
2026-04-25 20:30 48.34987 13.62096 20060 ft 193 kts 108°
2026-04-25 20:31 48.34513 13.63981 20062 ft 193 kts 108°
2026-04-25 20:31 48.34043 13.65848 20063 ft 193 kts 108°
2026-04-25 20:31 48.33568 13.67735 20063 ft 193 kts 108°
2026-04-25 20:31 48.33091 13.69624 20057 ft 193 kts 108°
2026-04-25 20:32 48.32617 13.71509 20054 ft 193 kts 108°
2026-04-25 20:32 48.32142 13.73392 20054 ft 193 kts 108°
2026-04-25 20:32 48.31666 13.75276 20054 ft 193 kts 108°
2026-04-25 20:32 48.31189 13.77158 20054 ft 193 kts 108°
2026-04-25 20:33 48.30713 13.79039 20052 ft 193 kts 108°
2026-04-25 20:33 48.30237 13.80919 20052 ft 193 kts 108°
2026-04-25 20:33 48.29760 13.82798 20053 ft 193 kts 108°
2026-04-25 20:33 48.29445 13.84042 20054 ft 193 kts 108°
2026-04-25 20:34 48.28804 13.86563 20059 ft 194 kts 109°
2026-04-25 20:34 48.28323 13.88454 20059 ft 194 kts 109°
2026-04-25 20:34 48.27840 13.90349 20058 ft 194 kts 109°
2026-04-25 20:34 48.27364 13.92223 20058 ft 194 kts 108°
2026-04-25 20:35 48.26880 13.94121 20057 ft 195 kts 109°
2026-04-25 20:35 48.26395 13.96022 20057 ft 195 kts 108°
2026-04-25 20:35 48.25909 13.97925 20058 ft 195 kts 109°
2026-04-25 20:35 48.25423 13.99829 20058 ft 195 kts 109°
2026-04-25 20:36 48.24937 14.01733 20054 ft 196 kts 109°
2026-04-25 20:36 48.24448 14.03642 20054 ft 196 kts 109°
2026-04-25 20:36 48.23958 14.05553 20053 ft 196 kts 109°
2026-04-25 20:36 48.23470 14.07457 20053 ft 195 kts 109°
2026-04-25 20:37 48.22982 14.09360 20053 ft 195 kts 109°
2026-04-25 20:37 48.22494 14.11260 20053 ft 195 kts 109°
2026-04-25 20:37 48.22006 14.13156 20053 ft 195 kts 109°
2026-04-25 20:37 48.21518 14.15055 20052 ft 195 kts 109°
2026-04-25 20:38 48.21028 14.16956 20052 ft 195 kts 109°
2026-04-25 20:38 48.20540 14.18851 20054 ft 195 kts 109°
2026-04-25 20:38 48.20062 14.20722 20054 ft 195 kts 109°
2026-04-25 20:38 48.19570 14.22616 20049 ft 195 kts 109°
2026-04-25 20:39 48.19080 14.24507 20047 ft 195 kts 111°
2026-04-25 20:39 48.18589 14.26395 20042 ft 195 kts 110°
2026-04-25 20:39 48.18102 14.28291 20041 ft 195 kts 110°
2026-04-25 20:39 48.17778 14.29545 20041 ft 195 kts 110°
2026-04-25 20:40 48.17122 14.32073 20042 ft 195 kts 110°
2026-04-25 20:40 48.16631 14.33965 20040 ft 195 kts 110°
2026-04-25 20:40 48.16141 14.35856 20041 ft 195 kts 110°
2026-04-25 20:40 48.15649 14.37747 20041 ft 195 kts 111°
2026-04-25 20:41 48.15236 14.39678 20040 ft 194 kts 102°
2026-04-25 20:41 48.14901 14.41638 20042 ft 194 kts 103°
2026-04-25 20:41 48.14476 14.43565 20033 ft 195 kts 112°
2026-04-25 20:41 48.13907 14.45412 20032 ft 195 kts 114°
2026-04-25 20:42 48.13386 14.47284 20032 ft 195 kts 111°
2026-04-25 20:42 48.12893 14.49172 20032 ft 195 kts 110°
2026-04-25 20:42 48.12398 14.51065 20032 ft 195 kts 110°
2026-04-25 20:42 48.11901 14.52946 20032 ft 195 kts 111°
2026-04-25 20:43 48.11401 14.54837 20030 ft 195 kts 111°
2026-04-25 20:43 48.10909 14.56698 20029 ft 195 kts 111°
2026-04-25 20:43 48.10409 14.58587 20029 ft 195 kts 111°
2026-04-25 20:43 48.09909 14.60475 20029 ft 195 kts 111°
2026-04-25 20:44 48.09408 14.62362 20030 ft 195 kts 111°
2026-04-25 20:44 48.08908 14.64246 20033 ft 195 kts 111°
2026-04-25 20:44 48.08406 14.66133 20033 ft 195 kts 111°
2026-04-25 20:44 48.07906 14.68018 20033 ft 195 kts 111°
2026-04-25 20:45 48.07403 14.69908 20031 ft 195 kts 111°
2026-04-25 20:45 48.06902 14.71786 20024 ft 194 kts 111°
2026-04-25 20:45 48.06402 14.73667 19977 ft 196 kts 111°
2026-04-25 20:45 48.05899 14.75554 19954 ft 195 kts 111°
2026-04-25 20:46 48.05396 14.77435 19932 ft 195 kts 111°
2026-04-25 20:46 48.04894 14.79318 19900 ft 195 kts 111°
2026-04-25 20:46 48.04390 14.81202 19885 ft 195 kts 111°
2026-04-25 20:46 48.03893 14.83060 19867 ft 194 kts 111°
2026-04-25 20:47 48.03390 14.84937 19830 ft 194 kts 111°
2026-04-25 20:47 48.02886 14.86817 19777 ft 195 kts 111°
2026-04-25 20:47 48.02383 14.88697 19748 ft 195 kts 111°
2026-04-25 20:47 48.01874 14.90596 19640 ft 199 kts 111°
2026-04-25 20:48 48.01355 14.92526 19516 ft 201 kts 111°
2026-04-25 20:48 48.00835 14.94463 19391 ft 200 kts 111°
2026-04-25 20:48 48.00321 14.96392 19273 ft 201 kts 111°
2026-04-25 20:48 47.99796 14.98320 19139 ft 200 kts 111°
2026-04-25 20:49 47.99276 15.00247 19035 ft 200 kts 111°
2026-04-25 20:49 47.98758 15.02172 18924 ft 200 kts 112°
2026-04-25 20:49 47.98239 15.04097 18800 ft 200 kts 112°
2026-04-25 20:49 47.97718 15.06026 18686 ft 201 kts 112°
2026-04-25 20:50 47.97194 15.07964 18565 ft 201 kts 112°
2026-04-25 20:50 47.96670 15.09896 18443 ft 201 kts 111°
2026-04-25 20:50 47.96147 15.11831 18329 ft 200 kts 111°
2026-04-25 20:50 47.95626 15.13754 18193 ft 200 kts 112°
2026-04-25 20:51 47.95113 15.15655 18068 ft 201 kts 112°
2026-04-25 20:51 47.94575 15.17614 17936 ft 202 kts 111°
2026-04-25 20:51 47.94052 15.19554 17802 ft 202 kts 111°
2026-04-25 20:51 47.93530 15.21473 17673 ft 202 kts 112°
2026-04-25 20:52 47.92998 15.23422 17536 ft 203 kts 112°
2026-04-25 20:52 47.92642 15.24732 17438 ft 202 kts 112°
2026-04-25 20:52 47.91944 15.27298 17264 ft 202 kts 112°
2026-04-25 20:52 47.91411 15.29245 17140 ft 203 kts 111°
2026-04-25 20:53 47.90883 15.31184 17002 ft 202 kts 111°
2026-04-25 20:53 47.90476 15.33183 16859 ft 202 kts 94°
2026-04-25 20:53 47.90477 15.35264 16900 ft 193 kts 83°
2026-04-25 20:53 47.90515 15.37235 16974 ft 187 kts 85°
2026-04-25 20:54 47.90479 15.39142 17051 ft 182 kts 89°
2026-04-25 20:54 47.90419 15.40988 17138 ft 174 kts 89°
2026-04-25 20:54 47.90366 15.42812 17084 ft 183 kts 90°
2026-04-25 20:54 47.90313 15.44730 16992 ft 189 kts 91°
2026-04-25 20:55 47.90245 15.46675 17044 ft 186 kts 90°
2026-04-25 20:55 47.90195 15.48630 16946 ft 194 kts 89°
2026-04-25 20:55 47.90135 15.50604 16953 ft 192 kts 90°
2026-04-25 20:55 47.90070 15.52626 16828 ft 197 kts 90°
2026-04-25 20:56 47.90001 15.54694 16705 ft 201 kts 90°
2026-04-25 20:56 47.89945 15.56770 16590 ft 205 kts 89°
2026-04-25 20:56 47.89883 15.58917 16465 ft 209 kts 90°
2026-04-25 20:56 47.89821 15.61104 16344 ft 209 kts 89°
2026-04-25 20:57 47.89758 15.63256 16216 ft 207 kts 89°
2026-04-25 20:57 47.89691 15.65405 16092 ft 208 kts 89°
2026-04-25 20:57 47.89620 15.67550 15962 ft 207 kts 90°
2026-04-25 20:57 47.89550 15.69678 15835 ft 205 kts 89°
2026-04-25 20:58 47.89485 15.71767 15712 ft 204 kts 89°
2026-04-25 20:58 47.89417 15.73892 15587 ft 205 kts 89°
2026-04-25 20:58 47.89348 15.76022 15454 ft 206 kts 90°
2026-04-25 20:58 47.89276 15.78146 15331 ft 205 kts 90°
2026-04-25 20:59 47.89204 15.80262 15208 ft 204 kts 90°
2026-04-25 20:59 47.89129 15.82378 15074 ft 203 kts 89°
2026-04-25 20:59 47.89070 15.84481 14959 ft 204 kts 89°
2026-04-25 20:59 47.89005 15.86586 14844 ft 203 kts 90°
2026-04-25 21:00 47.88955 15.87979 14764 ft 204 kts 90°
2026-04-25 21:00 47.88906 15.89377 14683 ft 204 kts 90°
2026-04-25 21:00 47.88715 15.94978 14351 ft 202 kts 90°
2026-04-25 21:01 47.88642 15.97072 14239 ft 203 kts 90°
2026-04-25 21:01 47.88570 15.99176 14120 ft 203 kts 90°
2026-04-25 21:01 47.88497 16.01278 14002 ft 203 kts 90°
2026-04-25 21:01 47.88425 16.03360 13827 ft 205 kts 90°
2026-04-25 21:02 47.88349 16.05466 13544 ft 200 kts 90°
2026-04-25 21:02 47.88275 16.07504 13247 ft 195 kts 90°
2026-04-25 21:02 47.88203 16.09500 12959 ft 192 kts 90°
2026-04-25 21:02 47.88137 16.11481 12659 ft 190 kts 90°
2026-04-25 21:03 47.88064 16.13439 12374 ft 188 kts 90°
2026-04-25 21:03 47.87993 16.15378 12123 ft 186 kts 90°
2026-04-25 21:03 47.87926 16.17298 11872 ft 185 kts 90°
2026-04-25 21:03 47.87856 16.19207 11621 ft 184 kts 90°
2026-04-25 21:04 47.87787 16.21084 11376 ft 183 kts 90°
2026-04-25 21:04 47.87718 16.22978 11130 ft 183 kts 90°
2026-04-25 21:04 47.87649 16.24870 10886 ft 183 kts 90°
2026-04-25 21:04 47.87579 16.26760 10644 ft 182 kts 90°
2026-04-25 21:05 47.87506 16.28645 10400 ft 182 kts 91°
2026-04-25 21:05 47.87438 16.30532 10162 ft 182 kts 91°
2026-04-25 21:05 47.87368 16.32419 9923 ft 182 kts 91°
2026-04-25 21:05 47.87298 16.34292 9667 ft 181 kts 91°
2026-04-25 21:06 47.87227 16.36159 9405 ft 180 kts 91°
2026-04-25 21:06 47.87157 16.38010 9145 ft 178 kts 91°
2026-04-25 21:06 47.87087 16.39838 8885 ft 176 kts 91°
2026-04-25 21:06 47.87064 16.40427 8824 ft 175 kts 91°
2026-04-25 21:07 47.86950 16.43415 8480 ft 170 kts 90°
2026-04-25 21:07 47.86882 16.45166 8269 ft 169 kts 90°
2026-04-25 21:07 47.86816 16.46904 8068 ft 168 kts 90°
2026-04-25 21:07 47.86747 16.48631 7866 ft 167 kts 89°
2026-04-25 21:08 47.86681 16.50350 7664 ft 165 kts 90°
2026-04-25 21:08 47.86613 16.52050 7466 ft 164 kts 89°
2026-04-25 21:08 47.86548 16.53733 7271 ft 162 kts 89°
2026-04-25 21:08 47.86483 16.55384 7072 ft 160 kts 89°
2026-04-25 21:09 47.86352 16.58687 6689 ft 160 kts 89°
2026-04-25 21:09 47.86285 16.60338 6498 ft 159 kts 89°
2026-04-25 21:09 47.86220 16.61981 6297 ft 159 kts 89°
2026-04-25 21:10 47.86160 16.63620 6096 ft 157 kts 87°
2026-04-25 21:10 47.86390 16.65179 5875 ft 153 kts 63°
2026-04-25 21:10 47.86784 16.66668 5665 ft 156 kts 63°
2026-04-25 21:10 47.87154 16.68199 5468 ft 158 kts 64°
2026-04-25 21:11 47.87513 16.69746 5272 ft 158 kts 64°
2026-04-25 21:11 47.87871 16.71296 5074 ft 158 kts 63°
2026-04-25 21:11 47.88230 16.72847 4877 ft 158 kts 63°
2026-04-25 21:11 47.88586 16.74397 4676 ft 157 kts 63°
2026-04-25 21:12 47.88944 16.75943 4471 ft 158 kts 63°
2026-04-25 21:12 47.89296 16.77470 4272 ft 158 kts 62°
2026-04-25 21:12 47.89654 16.79026 4071 ft 159 kts 62°
2026-04-25 21:12 47.89775 16.79552 4003 ft 159 kts 62°
2026-04-25 21:13 47.90368 16.82131 3673 ft 158 kts 62°
2026-04-25 21:13 47.90718 16.83687 3468 ft 160 kts 64°
2026-04-25 21:13 47.90719 16.85396 3225 ft 173 kts 98°
2026-04-25 21:13 47.90194 16.87032 3007 ft 177 kts 118°
2026-04-25 21:14 47.89764 16.88676 2965 ft 160 kts 92°
2026-04-25 21:14 47.89613 16.90250 3011 ft 152 kts 93°
2026-04-25 21:14 47.89534 16.91770 2984 ft 142 kts 70°
2026-04-25 21:14 47.89429 16.93256 2922 ft 154 kts 114°
2026-04-25 21:15 47.89353 16.94682 2936 ft 133 kts 59°
2026-04-25 21:15 47.89950 16.95488 2968 ft 105 kts 11°
2026-04-25 21:15 47.90380 16.95494 2995 ft 90 kts 329°
2026-04-25 21:15 47.90862 16.94825 3030 ft 100 kts 316°
2026-04-25 21:16 47.91418 16.94110 3036 ft 112 kts 317°
2026-04-25 21:16 47.92024 16.93304 3046 ft 121 kts 317°
2026-04-25 21:16 47.92665 16.92447 3057 ft 126 kts 317°
2026-04-25 21:16 47.93333 16.91551 3063 ft 133 kts 317°
2026-04-25 21:17 47.94034 16.90607 3063 ft 136 kts 317°
2026-04-25 21:17 47.94728 16.89677 3028 ft 132 kts 317°
2026-04-25 21:17 47.95403 16.88771 3024 ft 129 kts 317°
2026-04-25 21:17 47.96067 16.87880 3020 ft 128 kts 317°
2026-04-25 21:18 47.96726 16.86998 3026 ft 127 kts 317°
2026-04-25 21:18 47.97375 16.86126 3024 ft 124 kts 317°
2026-04-25 21:18 47.98122 16.85518 2973 ft 130 kts 347°
2026-04-25 21:18 47.99009 16.85952 2971 ft 139 kts 17°
2026-04-25 21:19 47.99868 16.86567 2970 ft 137 kts 14°
2026-04-25 21:19 48.00714 16.87171 3021 ft 132 kts 15°
2026-04-25 21:19 48.01551 16.87744 2970 ft 130 kts
2026-04-25 21:19 48.02356 16.87497 2886 ft 120 kts 317°
2026-04-25 21:20 48.02568 16.86355 3002 ft 118 kts 276°
2026-04-25 21:20 48.02552 16.85536 3006 ft 119 kts 277°
2026-04-25 21:20 48.02551 16.83865 3013 ft 121 kts 277°
2026-04-25 21:20 48.02701 16.82670 3000 ft 116 kts 300°
2026-04-25 21:21 48.03050 16.81583 3100 ft 118 kts 298°
2026-04-25 21:21 48.03392 16.80445 3147 ft 123 kts 297°
2026-04-25 21:21 48.03731 16.79247 3158 ft 127 kts 295°
2026-04-25 21:21 48.04057 16.78007 3189 ft 129 kts 294°
2026-04-25 21:22 48.04410 16.76760 3124 ft 134 kts 296°
2026-04-25 21:22 48.04838 16.75544 3018 ft 131 kts 302°
2026-04-25 21:22 48.05273 16.74380 2910 ft 123 kts 300°
2026-04-25 21:22 48.05645 16.73277 2755 ft 119 kts 298°
2026-04-25 21:23 48.06000 16.72186 2577 ft 112 kts 299°
2026-04-25 21:23 48.06343 16.71209 2557 ft 99 kts 300°
2026-04-25 21:23 48.06655 16.70321 2514 ft 99 kts 301°
2026-04-25 21:23 48.06972 16.69369 2468 ft 105 kts 300°
2026-04-25 21:24 48.07274 16.68426 2541 ft 87 kts 299°
2026-04-25 21:24 48.07508 16.67628 2480 ft 81 kts 296°
2026-04-25 21:24 48.07710 16.66883 2305 ft 76 kts 296°
2026-04-25 21:24 48.07920 16.66176 2092 ft 74 kts 297°
2026-04-25 21:25 48.08159 16.65465 1953 ft 78 kts 302°
2026-04-25 21:25 48.08433 16.64781 1928 ft 76 kts 299°
2026-04-25 21:25 48.08697 16.64078 1838 ft 78 kts 300°
2026-04-25 21:25 48.08956 16.63358 1741 ft 78 kts 298°
2026-04-25 21:26 48.09210 16.62616 1648 ft 82 kts 299°
2026-04-25 21:26 48.09465 16.61851 1514 ft 86 kts 298°
2026-04-25 21:26 48.09748 16.61066 1347 ft 83 kts 297°
2026-04-25 21:26 48.10012 16.60276 1117 ft 84 kts 295°
2026-04-25 21:27 48.10266 16.59510 957 ft 80 kts 295°
2026-04-25 21:27 48.10500 16.58788 857 ft 76 kts 291°
2026-04-25 21:27 48.10726 16.58096 730 ft 73 kts 292°
2026-04-25 21:27 48.10946 16.57431 651 ft 70 kts 291°
2026-04-25 21:28 48.11147 16.56817 621 ft 59 kts 293°
2026-04-25 21:28 48.11312 16.56309 611 ft 51 kts 296°
2026-04-25 21:28 48.11459 16.55865 619 ft 45 kts 295°
2026-04-25 21:28 48.11589 16.55453 616 ft 44 kts 295°
2026-04-25 21:29 48.11720 16.55037 600 ft 43 kts 296°
2026-04-25 21:29 48.11851 16.54646 601 ft 41 kts 296°
2026-04-25 21:29 48.11979 16.54261 596 ft 44 kts 295°
2026-04-25 21:29 48.12128 16.53802 594 ft 48 kts 296°
2026-04-25 21:30 48.12232 16.53515 595 ft 14 kts 335°
2026-04-25 21:30 48.12306 16.53536 596 ft 10 kts 26°
2026-04-25 21:30 48.12372 16.53582 593 ft 8 kts 22°
2026-04-25 21:30 48.12408 16.53609 592 ft 9 kts 26°
2026-04-25 21:31 48.12486 16.53627 590 ft 9 kts 352°
2026-04-25 21:31 48.12544 16.53653 588 ft 9 kts 22°
2026-04-25 21:31 48.12596 16.53690 585 ft 8 kts 33°
2026-04-25 21:31 48.12637 16.53663 584 ft 7 kts 295°
2026-04-25 21:32 48.12653 16.53614 584 ft 4 kts 296°
2026-04-25 21:32 48.12642 16.53566 585 ft 7 kts 204°
2026-04-25 21:32 48.12622 16.53591 585 ft 0 kts 89°
2026-04-25 21:33 48.12639 16.53600 584 ft 8 kts 304°
2026-04-25 21:33 48.12627 16.53572 585 ft 8 kts 103°
2026-04-25 21:33 48.12673 16.53605 583 ft 5 kts 40°
2026-04-25 21:33 48.12691 16.53617 582 ft 2 kts 348°
2026-04-25 21:34 48.12696 16.53604 582 ft 0 kts 288°